Location: Rounton
(54.4000°N, 1.3500°W)
Time: 22:07:53
(UTC+01:00)

deb Delta 126 - Pass Details

Date: 07 July 2022
Orbit: 1120 x 1970 km, 101.5° (Epoch: 17 August)

Event Time Altitude Azimuth Distance (km) Brightness Sun altitude
Rises 23:24:46 0° 26° (NNE) 5,107 ? -9.8°
Reaches altitude 10° 23:27:57 10° 19° (NNE) 4,199 ? -10.0°
Maximum altitude 23:37:08 39° 317° (NW) 2,695 ? -10.5°
Drops below altitude 10° 23:46:45 10° 255° (WSW) 4,391 ? -11.0°
Sets 23:50:11 0° 249° (WSW) 5,362 ? -11.2°
